CW6401 Weather Reports


time (UTC)temp
C
wind
direction
speed
KPH
gust
KPH
rain 1hr
cm
rain 24hr
cm
rain mn
cm
humidity
%
barometer
mb
20260510000259 12 62 4.8 8.0 0.18 0.91 0.91 86 1007.8
20260509235756 15 60 6.4 17.7 0.00 0.89 0.89 77 1007.3
20260509235251 16 209 1.6 4.8 0.00 0.89 0.89 65 1005.9
20260509234747 16 182 0.0 4.8 0.00 0.89 0.89 65 1005.6
20260509234244 16 187 1.6 3.2 0.00 0.89 0.89 65 1005.6
20260509233743 16 185 0.0 4.8 0.00 0.89 0.89 65 1005.2
20260509233240 16 185 1.6 4.8 0.00 0.89 0.89 67 1005.0
20260509232735 16 180 0.0 3.2 0.00 0.89 0.89 67 1004.7
20260509232233 16 185 1.6 3.2 0.00 0.89 0.89 67 1004.7
20260509231730 16 187 1.6 4.8 0.00 0.89 0.89 66 1004.8
20260509231227 16 176 0.0 0.0 0.00 0.89 0.89 66 1004.7
20260509230725 17 177 0.0 3.2 0.00 0.89 0.89 65 1004.6
20260509230221 17 214 3.2 4.8 0.00 0.89 0.89 63 1004.8
20260509225716 17 191 1.6 4.8 0.00 0.89 0.89 64 1004.7
20260509225212 17 181 3.2 4.8 0.00 0.89 0.89 63 1004.7
20260509224708 17 183 9.7 12.9 0.00 0.89 0.89 62 1004.6
20260509224205 17 215 8.0 9.7 0.00 0.89 0.89 60 1004.6
20260509223702 17 204 6.4 17.7 0.00 0.89 0.89 63 1004.6
20260509223154 17 188 4.8 14.5 0.00 0.89 0.89 61 1004.5
20260509222650 17 198 9.7 14.5 0.00 0.89 0.89 60 1004.7
20260509222145 17 213 4.8 9.7 0.00 0.89 0.89 61 1004.6
20260509221641 17 50 4.8 14.5 0.00 0.89 0.89 61 1004.7
20260509221137 18 268 4.8 12.9 0.00 0.89 0.89 59 1004.6
20260509220633 18 177 4.8 8.0 0.00 0.89 0.89 58 1004.5
20260509220130 18 207 8.0 9.7 0.00 0.89 0.89 57 1004.7
20260509215626 18 170 3.2 9.7 0.00 0.89 0.89 59 1004.6
20260509215118 18 170 6.4 9.7 0.00 0.89 0.89 56 1004.6
20260509214614 18 235 4.8 9.7 0.00 0.89 0.89 58 1004.4
20260509214111 19 132 4.8 14.5 0.00 0.89 0.89 59 1004.6
20260509213607 19 215 4.8 8.0 0.00 0.89 0.89 59 1004.4
20260509213103 19 339 3.2 8.0 0.00 0.89 0.89 59 1004.5
20260509212601 19 233 4.8 9.7 0.00 0.89 0.89 60 1004.7
20260509212058 18 130 8.0 12.9 0.00 0.89 0.89 57 1004.7
20260509211553 18 225 8.0 9.7 0.00 0.89 0.89 57 1004.6
20260509211050 17 204 3.2 4.8 0.00 0.89 0.89 62 1005.1
20260509210547 17 184 3.2 12.9 0.00 0.89 0.89 61 1005.0
20260509210043 18 203 6.4 12.9 0.00 0.89 0.89 60 1005.0
20260509205537 18 255 1.6 8.0 0.00 0.89 0.89 60 1005.0
20260509205033 19 229 9.7 12.9 0.00 0.89 0.89 58 1005.0
20260509204530 18 178 0.0 8.0 0.00 0.89 0.89 63 1005.1
20260509204026 18 251 14.5 17.7 0.00 0.89 0.89 59 1005.3
20260509203522 17 215 6.4 9.7 0.00 0.89 0.89 63 1005.2
20260509203020 18 57 8.0 12.9 0.00 0.89 0.89 61 1005.3
20260509202515 18 141 1.6 4.8 0.00 0.89 0.89 62 1005.5
20260509202011 18 205 6.4 9.7 0.00 0.89 0.89 62 1005.6
20260509201506 19 195 4.8 9.7 0.00 0.89 0.89 59 1005.6
20260509201004 19 192 3.2 8.0 0.00 0.89 0.89 60 1005.5
20260509200503 19 220 3.2 8.0 0.00 0.89 0.89 62 1005.6
20260509200000 18 203 3.2 9.7 0.00 0.89 0.89 60 1005.5
20260509195455 17 278 8.0 9.7 0.00 0.89 0.89 65 1005.8
20260509194950 18 147 9.7 9.7 0.00 0.89 0.89 59 1006.0
20260509194445 18 182 0.0 3.2 0.00 0.89 0.89 62 1006.0
20260509193942 17 27 3.2 8.0 0.00 0.89 0.89 62 1006.0
20260509193437 18 209 6.4 14.5 0.00 0.89 0.89 61 1006.0
20260509192933 18 113 12.9 20.9 0.00 0.89 0.89 59 1006.1
20260509192430 18 198 1.6 4.8 0.00 0.89 0.89 67 1005.9
20260509191925 18 124 4.8 4.8 0.00 0.89 0.89 64 1005.7
20260509191420 18 196 4.8 9.7 0.00 0.89 0.89 66 1005.9
20260509190917 17 295 4.8 8.0 0.00 0.89 0.89 68 1006.1
20260509190414 17 184 1.6 9.7 0.00 0.89 0.89 69 1006.3
20260509185911 17 215 6.4 12.9 0.00 0.89 0.89 66 1006.2
20260509185403 18 256 11.3 14.5 0.00 0.89 0.89 65 1006.4
20260509184859 17 186 1.6 12.9 0.00 0.89 0.89 67 1006.3
20260509184356 18 156 3.2 9.7 0.00 0.89 0.89 67 1006.4
20260509183854 17 189 4.8 12.9 0.00 0.89 0.89 69 1006.2
20260509183348 17 222 6.4 8.0 0.00 0.89 0.89 69 1006.3
20260509182844 16 174 4.8 8.0 0.00 0.89 0.89 70 1006.5
20260509182342 16 145 6.4 9.7 0.00 0.89 0.89 72 1006.4
20260509181839 17 268 4.8 8.0 0.00 0.89 0.89 72 1006.3
20260509181336 16 183 1.6 9.7 0.00 0.89 0.89 75 1006.4
20260509180833 15 318 3.2 14.5 0.00 0.89 0.89 78 1006.5
20260509180329 15 189 6.4 12.9 0.00 0.89 0.89 77 1006.4
20260509175826 15 179 4.8 9.7 0.00 0.89 0.89 80 1006.8
20260509175322 15 283 11.3 12.9 0.00 0.89 0.89 75 1006.5
20260509174818 15 251 6.4 9.7 0.00 0.89 0.89 78 1006.6
20260509174314 15 132 6.4 9.7 0.00 0.89 0.89 82 1006.8
20260509173810 15 212 6.4 8.0 0.00 0.89 0.89 82 1006.8
20260509173306 15 149 3.2 4.8 0.00 0.89 0.89 82 1006.8
20260509172801 14 107 8.0 12.9 0.00 0.89 0.89 81 1006.9
20260509172259 14 220 3.2 9.7 0.00 0.89 0.89 83 1007.0
20260509171754 15 178 1.6 4.8 0.00 0.89 0.89 83 1007.0
20260509171250 14 192 3.2 8.0 0.00 0.89 0.89 87 1007.3
20260509170747 14 211 0.0 8.0 0.00 0.89 0.89 86 1007.1
20260509170243 13 187 0.0 8.0 0.00 0.89 0.89 86 1007.3
20260509165742 13 209 8.0 9.7 0.00 0.89 0.89 87 1007.2
20260509165237 13 254 3.2 4.8 0.00 0.89 0.89 89 1007.1
20260509164733 12 220 4.8 8.0 0.00 0.89 0.89 89 1007.2
20260509164229 13 203 4.8 14.5 0.00 0.89 0.89 87 1007.2
20260509163726 13 171 3.2 8.0 0.00 0.89 0.89 90 1007.3
20260509163223 12 181 1.6 4.8 0.00 0.89 0.89 91 1007.1
20260509162720 12 192 1.6 3.2 0.00 0.89 0.89 91 1007.3
20260509162215 12 216 3.2 4.8 0.00 0.89 0.89 92 1007.2
20260509161711 12 180 3.2 4.8 0.00 0.89 0.89 93 1007.2
20260509161208 11 195 1.6 4.8 0.00 0.89 0.89 94 1007.2
20260509160703 11 161 3.2 8.0 0.00 0.89 0.89 94 1007.1
20260509160159 11 206 3.2 4.8 0.00 0.89 0.89 95 1007.2
20260509155655 11 204 3.2 8.0 0.00 0.89 0.89 96 1006.9
20260509155151 11 213 3.2 4.8 0.00 0.89 0.89 96 1007.0
20260509154647 11 184 3.2 4.8 0.00 0.89 0.89 96 1007.0
20260509154145 11 210 1.6 4.8 0.00 0.89 0.89 97 1007.2
20260509153641 11 193 3.2 3.2 0.00 0.89 0.89 97 1007.2
20260509153138 11 215 1.6 4.8 0.00 0.89 0.89 97 1007.3
20260509152634 10 191 1.6 4.8 0.00 0.89 0.89 97 1007.1
20260509152131 11 197 3.2 4.8 0.00 0.89 0.89 97 1007.2
20260509151627 10 196 3.2 9.7 0.00 0.89 0.89 97 1006.9
20260509151125 10 198 3.2 4.8 0.00 0.89 0.89 98 1006.9
20260509150623 10 191 3.2 9.7 0.00 0.89 0.89 98 1007.2
20260509150121 10 174 3.2 3.2 0.00 0.89 0.89 98 1007.0
20260509145616 10 156 3.2 4.8 0.00 0.89 0.89 99 1007.1
20260509145112 10 189 1.6 4.8 0.00 0.89 0.89 99 1007.0
20260509144609 10 180 0.0 0.0 0.00 0.89 0.89 99 1007.2
20260509144106 10 175 0.0 0.0 0.00 0.89 0.89 99 1007.1
20260509143603 10 185 1.6 3.2 0.00 0.89 0.89 99 1007.0
20260509143101 10 213 0.0 3.2 0.00 0.89 0.89 99 1007.0
20260509142556 10 187 0.0 3.2 0.00 0.89 0.89 99 1007.0
20260509142053 10 180 0.0 4.8 0.00 0.89 0.89 99 1007.1
20260509141549 10 163 1.6 4.8 0.00 0.89 0.89 99 1007.1
20260509141046 10 215 4.8 8.0 0.00 0.89 0.89 99 1007.1
20260509140543 10 204 3.2 4.8 0.00 0.89 0.89 99 1006.9
20260509140041 10 213 3.2 4.8 0.00 0.89 0.89 99 1007.2
20260509135538 10 176 0.0 0.0 0.00 0.89 0.89 99 1007.1
20260509135036 10 180 1.6 4.8 0.00 0.89 0.89 99 1007.0
20260509134532 10 202 1.6 4.8 0.00 0.89 0.89 99 1007.2
20260509134030 10 196 0.0 3.2 0.00 0.89 0.89 99 1007.2
20260509133526 9 195 0.0 3.2 0.00 0.89 0.89 99 1007.2
20260509133024 9 180 0.0 3.2 0.00 0.89 0.89 99 1007.2
20260509132522 9 178 0.0 3.2 0.00 0.89 0.89 99 1007.4
20260509132020 9 188 0.0 3.2 0.00 0.89 0.89 99 1007.5
20260509131515 9 188 0.0 0.0 0.00 0.89 0.89 99 1007.4
20260509131013 9 186 3.2 4.8 0.00 0.89 0.89 99 1007.3
20260509130508 9 206 1.6 4.8 0.00 0.89 0.89 99 1007.3
20260509130005 9 189 0.0 3.2 0.00 0.89 0.89 99 1007.4
20260509125501 9 183 0.0 3.2 0.00 0.89 0.89 99 1007.2
20260509124957 9 179 0.0 3.2 0.00 0.89 0.89 99 1007.3
20260509124454 9 178 1.6 3.2 0.00 0.89 0.89 99 1007.3
20260509123952 9 190 0.0 4.8 0.00 0.89 0.89 99 1007.3
20260509123449 9 189 0.0 0.0 0.00 0.89 0.89 99 1007.6
20260509122939 8 192 0.0 3.2 0.00 0.89 0.89 99 1007.4
20260509122437 8 164 0.0 4.8 0.00 0.89 0.89 99 1007.6
20260509121933 8 193 3.2 4.8 0.00 0.89 0.89 99 1007.5
20260509121430 8 180 0.0 3.2 0.00 0.89 0.89 99 1007.6
20260509120928 8 179 0.0 0.0 0.00 0.89 0.89 99 1007.5
20260509120426 8 175 0.0 0.0 0.00 0.89 0.89 99 1007.7
20260509115924 8 218 3.2 4.8 0.00 0.89 0.89 99 1007.5
20260509115421 8 171 0.0 3.2 0.00 0.89 0.89 99 1007.6
20260509114918 8 202 0.0 3.2 0.00 0.89 0.89 99 1007.5
20260509114417 8 174 1.6 3.2 0.13 0.89 0.89 99 1007.4
20260509113916 8 183 0.0 0.0 0.13 0.89 0.89 99 1007.6
20260509113413 8 183 0.0 3.2 0.00 0.86 0.86 99 1007.4
20260509112909 8 216 3.2 4.8 0.00 0.86 0.86 99 1007.4
20260509112406 8 183 0.0 3.2 0.00 0.86 0.86 99 1007.6
20260509111903 8 189 3.2 4.8 0.00 0.86 0.86 99 1007.6
20260509111359 8 174 1.6 3.2 0.00 0.86 0.86 99 1007.4
20260509110858 8 185 0.0 0.0 0.00 0.86 0.86 99 1007.5
20260509110353 8 176 0.0 3.2 0.18 0.86 0.86 99 1007.4
20260509105852 8 162 1.6 4.8 0.18 0.86 0.86 99 1007.5
20260509105350 8 175 0.0 0.0 0.00 0.84 0.84 99 1007.3
20260509104846 8 257 0.0 3.2 0.00 0.84 0.84 99 1007.3
20260509104343 8 175 3.2 3.2 0.00 0.84 0.84 99 1007.3
20260509103841 8 173 0.0 3.2 0.00 0.84 0.84 99 1007.4
20260509103338 8 182 1.6 3.2 0.00 0.84 0.84 99 1007.2
20260509102837 8 164 1.6 3.2 0.00 0.84 0.84 99 1007.4
20260509102333 8 174 0.0 0.0 0.00 0.84 0.84 99 1007.4
20260509101829 8 181 0.0 3.2 0.00 0.84 0.84 99 1007.4
20260509101325 8 172 0.0 3.2 0.00 0.84 0.84 99 1007.4
20260509100824 8 163 3.2 4.8 0.00 0.84 0.84 99 1007.6
20260509100320 8 172 0.0 0.0 0.00 0.84 0.84 99 1007.5
20260509095817 8 181 1.6 3.2 0.00 0.84 0.84 99 1007.6
20260509095314 8 182 3.2 3.2 0.13 0.84 0.84 99 1007.6
20260509094811 8 202 0.0 3.2 0.18 0.81 0.81 99 1007.7
20260509094308 8 187 1.6 3.2 0.18 0.81 0.81 99 1007.5
20260509093806 8 173 1.6 4.8 0.13 0.79 0.79 99 1007.7
20260509093303 8 171 0.0 3.2 0.30 0.79 0.79 99 1007.7
20260509092801 8 191 1.6 3.2 0.36 0.76 0.76 99 1007.9
20260509092259 8 170 0.0 3.2 0.18 0.74 0.74 99 1007.7
20260509091757 8 167 0.0 3.2 0.13 0.71 0.71 99 1007.7
20260509091253 8 170 1.6 3.2 0.18 0.69 0.69 99 1007.8
20260509090750 8 166 3.2 3.2 0.30 0.69 0.69 99 1007.8
20260509090247 8 173 1.6 4.8 0.30 0.66 0.66 99 1007.8
20260509085745 8 182 1.6 3.2 0.18 0.64 0.64 99 1007.9
20260509085242 8 174 1.6 3.2 0.13 0.61 0.61 99 1007.7
20260509084738 8 174 0.0 3.2 0.30 0.61 0.61 99 1008.0
20260509084235 8 179 0.0 3.2 0.18 0.58 0.58 99 1007.9
20260509083733 8 171 0.0 3.2 0.13 0.56 0.56 99 1008.0
20260509083230 8 174 1.6 3.2 0.30 0.56 0.56 99 1008.1
20260509082726 8 177 0.0 3.2 0.18 0.53 0.53 99 1008.0
20260509082223 8 172 0.0 3.2 0.13 0.51 0.51 99 1007.9
20260509081720 8 168 0.0 0.0 0.30 0.51 0.51 99 1008.0
20260509081218 8 168 0.0 0.0 0.18 0.48 0.48 99 1008.0
20260509080716 8 168 0.0 0.0 0.36 0.48 0.48 99 1008.0
20260509080213 8 168 0.0 0.0 0.30 0.46 0.46 99 1008.0
20260509075711 8 168 0.0 0.0 0.13 0.43 0.43 99 1008.0
20260509075208 8 166 0.0 0.0 0.18 0.41 0.41 99 1008.2
20260509074705 8 168 0.0 0.0 0.18 0.41 0.41 99 1008.0
20260509074202 8 168 0.0 3.2 0.00 0.38 0.38 99 1007.9
20260509073659 8 165 0.0 0.0 0.00 0.38 0.38 99 1007.8
20260509073155 8 167 0.0 3.2 0.00 0.38 0.38 99 1007.9
20260509072652 8 167 0.0 3.2 0.13 0.38 0.38 99 1007.8
20260509072148 8 167 1.6 3.2 0.30 0.38 0.38 99 1008.0
20260509071645 8 166 0.0 3.2 0.18 0.36 0.36 99 1007.9
20260509071142 8 166 0.0 3.2 0.13 0.33 0.33 99 1008.1
20260509070639 8 172 0.0 0.0 0.18 0.30 0.30 99 1008.2
20260509070136 8 171 0.0 3.2 0.00 0.28 0.28 99 1008.2
20260509065631 8 172 0.0 3.2 0.00 0.28 0.28 99 1008.1
20260509065128 8 172 0.0 3.2 0.00 0.28 0.28 99 1008.4
20260509064625 8 171 1.6 3.2 0.13 0.28 0.28 99 1008.2
20260509064123 8 172 0.0 0.0 0.13 0.28 0.28 99 1008.3
20260509063619 8 172 0.0 0.0 0.18 0.25 0.25 99 1008.2
20260509063116 8 182 0.0 3.2 0.00 0.23 0.23 99 1008.4
20260509062613 8 167 0.0 0.0 0.13 0.23 0.23 99 1008.6
20260509062110 8 167 0.0 0.0 0.13 0.23 0.23 99 1008.5
20260509061607 8 167 0.0 0.0 0.00 0.20 0.20 99 1008.6
20260509061104 8 167 0.0 3.2 0.00 0.20 0.20 99 1008.7
20260509060602 8 175 1.6 3.2 0.00 0.20 0.20 99 1008.9
20260509060058 8 171 0.0 0.0 0.00 0.20 0.20 99 1009.0
20260509055553 8 171 0.0 3.2 0.00 0.20 0.20 99 1009.3
20260509055049 8 171 0.0 0.0 0.00 0.20 0.20 99 1009.0
20260509054546 8 171 0.0 0.0 0.00 0.20 0.20 99 1009.2
20260509054044 8 171 0.0 0.0 0.00 0.20 0.20 99 1009.1
20260509053543 8 171 0.0 0.0 0.00 0.20 0.20 99 1009.1
20260509053039 8 171 0.0 0.0 0.00 0.20 0.20 99 1009.3
20260509052537 8 171 0.0 0.0 0.00 0.20 0.20 99 1009.3
20260509052035 8 171 0.0 0.0 0.00 0.20 0.20 99 1009.3
20260509051533 8 171 0.0 0.0 0.18 0.20 0.20 99 1009.3
20260509051029 8 171 0.0 3.2 0.18 0.20 0.20 99 1009.4
20260509050526 8 171 3.2 4.8 0.00 0.18 0.18 99 1009.4
20260509050022 8 165 0.0 0.0 0.30 0.18 0.18 99 1009.4
20260509045520 8 183 1.6 3.2 0.30 0.18 0.18 99 1009.7
20260509045017 8 151 1.6 3.2 0.18 0.13 0.13 99 1009.7
20260509044515 8 178 0.0 0.0 0.18 0.13 0.13 99 1010.0
20260509044012 8 177 0.0 3.2 0.30 0.10 0.10 99 1010.1
20260509043508 8 198 1.6 3.2 0.43 0.10 0.10 99 1010.0
20260509043004 8 174 0.0 0.0 0.13 0.05 0.05 99 1010.1
20260509042500 8 173 1.6 3.2 0.00 0.03 0.03 99 1010.1
20260509041956 8 168 1.6 3.2 0.00 0.03 0.03 99 1010.0
20260509041453 8 169 0.0 3.2 0.18 0.03 0.03 99 1010.1
20260509040951 8 165 0.0 3.2 0.00 0.00 0.00 99 1010.1
20260509040449 8 174 1.6 3.2 0.00 0.00 0.00 99 1010.2
20260509035945 8 169 1.6 3.2 0.00 1.32 1.32 99 1010.0
20260509035442 8 181 0.0 4.8 0.00 1.32 1.32 99 1010.1
20260509034939 8 184 0.0 3.2 0.00 1.32 1.32 99 1010.3
20260509034437 8 161 3.2 3.2 0.00 1.32 1.32 99 1010.2
20260509033934 8 181 0.0 0.0 0.00 1.32 1.32 99 1010.4
20260509033431 8 181 0.0 0.0 0.13 1.32 1.32 99 1010.4
20260509032927 8 181 0.0 0.0 0.13 1.32 1.32 99 1010.5
20260509032425 8 181 0.0 0.0 0.00 1.30 1.30 99 1010.6
20260509031922 8 181 0.0 0.0 0.18 1.30 1.30 99 1010.6
20260509031420 8 181 0.0 0.0 0.18 1.30 1.30 99 1010.6
20260509030917 8 181 0.0 0.0 0.00 1.27 1.27 99 1010.7
20260509030415 8 181 0.0 0.0 0.13 1.27 1.27 99 1010.5
20260509025912 8 181 0.0 0.0 0.13 1.27 1.27 99 1010.5
20260509025407 8 181 0.0 0.0 0.18 1.24 1.24 99 1010.5
20260509024902 8 181 0.0 0.0 0.30 1.24 1.24 99 1010.7
20260509024359 8 182 0.0 0.0 0.13 1.22 1.22 99 1010.7
20260509023856 8 182 0.0 0.0 0.18 1.19 1.19 99 1010.8
20260509023353 8 182 0.0 0.0 0.18 1.19 1.19 99 1010.9
20260509022849 8 182 0.0 0.0 0.13 1.17 1.17 99 1011.0
20260509022347 8 182 0.0 0.0 0.13 1.17 1.17 99 1010.8
20260509021844 8 183 0.0 0.0 0.18 1.14 1.14 99 1010.9
20260509021341 8 183 0.0 0.0 0.18 1.14 1.14 99 1010.8
20260509020839 8 185 0.0 3.2 0.18 1.12 1.12 99 1011.1
20260509020337 8 176 0.0 0.0 0.18 1.12 1.12 99 1011.0
20260509015829 8 187 3.2 3.2 0.13 1.09 1.09 99 1011.2
20260509015326 8 181 0.0 0.0 0.30 1.09 1.09 99 1011.0
20260509014822 8 174 0.0 0.0 0.18 1.07 1.07 99 1010.8
20260509014319 8 174 0.0 0.0 0.00 1.04 1.04 99 1010.6
20260509013816 8 174 0.0 0.0 0.13 1.04 1.04 99 1010.8
20260509013312 8 174 0.0 0.0 0.30 1.04 1.04 99 1010.7
20260509012808 8 174 0.0 0.0 0.30 1.02 1.02 99 1010.6
20260509012307 8 168 0.0 0.0 0.30 0.99 0.99 99 1010.6
20260509011802 8 168 0.0 0.0 0.30 0.97 0.97 98 1010.6
20260509011255 8 173 0.0 0.0 0.30 0.94 0.94 98 1010.6
20260509010752 8 169 0.0 0.0 0.30 0.91 0.91 98 1010.4
20260509010249 8 177 0.0 0.0 0.30 0.89 0.89 98 1010.3
20260509005746 8 177 0.0 0.0 0.30 0.86 0.86 98 1010.2
20260509005244 8 177 0.0 0.0 0.30 0.84 0.84 98 1010.3
20260509004743 8 177 0.0 0.0 0.36 0.81 0.81 98 1010.1
20260509004240 8 178 0.0 0.0 0.18 0.79 0.79 98 1010.1
20260509003738 8 178 0.0 0.0 0.13 0.76 0.76 98 1010.1
20260509003236 8 179 0.0 0.0 0.30 0.76 0.76 98 1010.1
20260509002733 8 176 0.0 0.0 0.30 0.74 0.74 98 1010.2
20260509002231 8 174 0.0 0.0 0.13 0.71 0.71 97 1009.9
20260509001728 8 174 0.0 0.0 0.18 0.69 0.69 97 1009.9
20260509001224 8 158 0.0 0.0 0.30 0.69 0.69 97 1010.0
20260509000722 8 158 0.0 0.0 0.30 0.66 0.66 97 1010.0